Location: Red Rock Farm
(35.2100°N, 97.2200°W)
Time: 16:59:48
(UTC-05:00)

Daily predictions for brighter satellites

Satellite Brightness Start Highest point End
(mag) Time Altitude Azimuth Time Altitude Azimuth Time Altitude Azimuth
Cosmos 1697 Rocket 3.2 21:07:37 10° NNW 21:13:13 63° WSW 21:18:46 10° S
Meteor 2-1 Rocket 4.2 21:11:50 10° N 21:17:28 72° E 21:23:00 10° SSE
H-2A R/B 3.2 21:14:55 10° SE 21:18:53 31° ENE 21:22:52 10° N
FENGYUN 3A 3.8 21:15:25 10° SSE 21:20:50 84° WSW 21:26:18 10° NNW
Cosmos 2228 Rocket 3.7 21:21:34 10° N 21:25:47 39° E 21:29:59 10° SSE
USA 186 2.0 21:24:19 10° S 21:26:36 47° W 21:28:56 10° NNW
Delta 128 4.5 21:24:52 10° WSW 21:29:01 32° S 21:32:49 11° ESE
CZ-2D R/B 4.3 21:25:58 10° S 21:29:42 46° W 21:33:27 10° NNW
Resurs 01 Rocket 4.4 21:27:37 10° SW 21:30:23 16° W 21:33:08 10° NW
H-2A R/B 3.4 21:28:00 10° S 21:31:49 56° W 21:35:36 10° NNW
Cosmos 1743 Rocket 3.7 21:31:27 10° S 21:35:49 56° E 21:40:13 10° NNE
SJ-11-01 4.3 21:32:21 10° SSE 21:37:00 67° ENE 21:41:42 10° N
deb Kosmos-1763 4.2 21:33:42 10° SSW 21:37:34 88° ESE 21:41:29 10° NNE
Cosmos 2360 4.3 21:35:07 10° NNW 21:40:52 90° WSW 21:46:36 10° SSE
GPS 2-04 Rocket1 2.9 21:36:58 10° W 21:41:20 76° SSW 21:45:05 13° ESE
Cosmos 1500 Rocket 3.9 21:38:53 10° SSE 21:42:59 43° E 21:47:08 10° NNE
deb Chang Zheng 4 3.5 21:39:11 10° NNE 21:43:31 77° ESE 21:47:51 10° S
USA 229 DEB 3.8 21:38:11 10° SSW 21:44:54 57° ESE 21:51:42 10° NE
USA 229 3.8 21:38:18 10° SSW 21:45:00 56° ESE 21:51:47 10° NE
Cosmos 540 Rocket 3.6 21:40:39 10° NNW 21:45:49 77° WSW 21:50:57 10° S
Cosmos 2221 4.0 21:45:53 10° NNW 21:49:47 36° W 21:53:42 10° SSW
Cosmos 1378 4.5 21:47:31 10° SSW 21:51:05 41° W 21:54:38 10° N
ATLAS 5 CENTAUR R/B 4.5 21:51:02 10° WSW 21:55:01 25° NW 21:59:14 10° N
Cosmos 968 Rocket 3.6 21:52:28 10° SSW 21:57:37 79° WNW 22:02:51 10° NNE
AVUM R/B 4.3 21:58:38 17° ENE 21:58:38 17° ENE 21:59:37 10° NE
Delta 2 Rocket 3.3 21:55:22 10° SW 21:58:40 38° SSE 22:00:31 20° ESE
CZ-4 SHROUD 3.7 22:03:15 26° SE 22:04:36 44° ENE 22:07:37 10° N
USA 245 4.5 22:04:47 16° ENE 22:04:52 16° ENE 22:06:35 10° NE
DELTA 2 R/B(2) 3.5 22:05:21 10° W 22:06:56 59° NNW 22:08:28 16° ENE
Cosmos 332 Rocket 4.4 22:03:57 10° NNW 22:08:41 55° WSW 22:13:03 12° S
ATLAS CENTAUR R/B 1.6 22:04:38 10° NW 22:09:06 67° WSW 22:11:44 21° SSE
DELTA 2 R/B (1) 4.2 22:04:18 10° WNW 22:09:44 55° N 22:15:11 10° E
Terra 4.0 22:08:31 10° E 22:09:50 11° ENE 22:11:08 10° NE
YAOGAN 6 3.5 22:08:39 25° ESE 22:10:01 33° ENE 22:13:18 10° N
Envisat 3.0 22:07:45 15° SSE 22:11:58 89° WSW 22:17:05 10° NNW
Cosmos 1515 Rocket 3.5 22:09:03 10° N 22:13:31 83° E 22:16:32 20° S
Cosmos 2266 Rocket 4.0 22:10:26 10° S 22:16:44 72° E 22:22:58 10° N
ARGOS 4.0 22:14:35 22° ESE 22:17:20 36° ENE 22:22:13 10° N
CZ-4 R/B 4.5 22:13:15 10° NNE 22:17:49 37° E 22:19:46 26° SE
MetOp-A 4.2 22:15:50 22° SSE 22:19:18 67° ENE 22:24:37 10° N
Cosmos 2219 3.8 22:16:52 21° SSE 22:20:00 37° ESE 22:25:13 10° NE
Cosmos 1553 Rocket 4.3 22:13:51 10° NNW 22:20:12 69° W 22:26:27 10° S
Cosmos 1441 Rocket 4.0 22:18:10 10° SSW 22:21:52 50° W 22:25:32 10° N
Cosmos 405 3.3 22:19:20 10° N 22:22:53 50° E 22:23:51 38° SE
ERS-1 Rocket 4.2 22:19:46 10° SSW 22:24:24 37° W 22:29:04 10° NNW
Sich 1 4.4 22:28:03 22° E 22:28:08 22° E 22:31:32 10° NE
Cosmos 1777 Rocket 4.3 22:22:58 10° SSW 22:28:13 69° WNW 22:33:29 10° NNE
Cosmos 1939 Rocket 4.0 22:25:22 13° SSW 22:28:33 38° W 22:32:15 10° NNW
Cosmos 2322 4.3 22:25:37 10° N 22:31:05 45° ENE 22:33:36 28° ESE
Meteor 2-20 Rocket 4.4 22:25:22 11° S 22:31:22 88° ESE 22:37:33 10° N
H-2A R/B 3.4 22:31:47 21° E 22:33:34 25° ENE 22:37:53 10° NNE
Cosmos 1437 2.6 22:35:38 58° SSE 22:36:09 75° E 22:39:26 10° NNE
Cosmos 1805 Rocket 3.9 22:37:41 39° SE 22:38:42 47° E 22:42:59 10° NNE
Cosmos 2322 Rocket 2.8 22:33:27 10° NNW 22:38:52 50° WSW 22:42:26 21° S
SPOT 5 3.2 22:36:31 23° S 22:39:08 57° W 22:43:44 10° NNW
Cosmos 2151 2.8 22:38:23 29° S 22:40:27 89° W 22:44:39 10° N
Cosmos 1726 3.7 22:39:30 10° NNE 22:42:11 22° ENE 22:42:11 22° ENE
Cosmos 1908 3.5 22:38:41 10° NNW 22:42:33 66° W 22:44:00 36° SSW
SPOT 1/Viking Rocket 3.4 22:43:04 35° SSE 22:45:18 80° ENE 22:50:28 10° N
SL-16 R/B 3.0 22:42:03 10° NW 22:47:26 45° WSW 22:50:48 22° SSW
Cosmos 1151 Rocket 3.2 22:43:19 10° NNW 22:47:37 69° W 22:49:18 35° SSW
NOAA 11 4.2 22:45:57 36° SE 22:48:06 66° ENE 22:53:30 10° N
Cosmos 2360 Rocket 2.2 22:44:54 10° NNW 22:50:33 68° ENE 22:52:34 40° SE
Nadezhda 2 Rocket 4.4 22:47:35 22° S 22:51:48 89° W 22:57:57 10° N
NOSS 3-1 (C) 3.4 22:50:32 27° S 22:53:33 56° ESE 22:59:40 10° NE
H-2A R/B 4.3 22:51:29 10° SW 22:54:52 21° W 22:58:17 10° NW
Cosmos 1680 Rocket 3.4 22:53:26 10° NNW 22:58:42 77° ENE 23:00:10 48° SSE
Cosmos 1707 Rocket 3.6 22:55:50 10° N 23:00:07 55° E 23:00:25 53° E
Cosmos 1666 Rocket 3.5 23:00:12 59° ESE 23:00:32 61° E 23:04:53 10° NNE
Cosmos 923 Rocket 4.0 22:56:20 10° NNW 23:01:32 75° WSW 23:03:12 43° S
Cosmos 1437 Rocket 4.4 22:58:57 10° NNW 23:02:15 28° W 23:03:44 22° SW
Cosmos 2150 Rocket 4.2 23:05:23 49° SE 23:06:08 53° ESE 23:11:27 10° NNE
DMSP B5D2-2 4.2 23:04:11 10° NNE 23:09:18 53° E 23:09:46 51° ESE
CZ-4C R/B 3.3 23:10:18 60° NNE 23:10:18 60° NNE 23:13:17 10° N
Cosmos 1898 Rocket 3.5 23:10:08 54° ESE 23:10:32 56° ESE 23:15:37 10° NNE
Cosmos 2227 Rocket 3.6 23:12:57 22° E 23:12:57 22° E 23:16:04 10° NE
Meteor 2-11 Rocket 4.4 23:07:34 10° N 23:13:44 77° E 23:15:31 48° SSE
Cosmos 1300 2.7 23:10:48 10° N 23:14:20 73° NNE 23:14:20 73° NNE
SL-08 RB Rocket 3.7 23:14:41 58° SSW 23:15:22 70° WSW 23:19:51 10° NNW
Cosmos 2058 3.5 23:16:00 43° SW 23:16:52 52° W 23:20:53 10° N
Cosmos 1626 4.5 23:19:14 15° NE 23:19:14 15° NE 23:20:14 10° NE
Cosmos 2333 Rocket 3.9 23:13:27 10° N 23:17:42 21° ENE 23:19:13 19° ENE
Cosmos 858 Rocket 4.4 23:19:50 62° ESE 23:20:07 63° ESE 23:25:17 10° NNE
Meteor 1-4 Rocket 3.8 23:20:18 10° N 23:22:56 36° NE 23:22:56 36° NE
DELTA 2 DEB (DPAF) 4.2 23:27:10 65° SW 23:27:27 67° WSW 23:31:56 10° NNW
COSMOS 2428 2.7 23:23:57 10° NNW 23:29:37 69° ENE 23:30:25 60° ESE
Landsat 7 3.8 23:30:39 65° SW 23:31:05 69° W 23:35:49 10° NNW
Cosmos 2242 Rocket 3.7 23:27:22 10° N 23:31:31 70° NE 23:31:31 70° NE
IGS 5A 3.7 23:36:41 66° N 23:36:41 66° N 23:40:19 10° N
Spot 4 3.8 23:36:42 70° ENE 23:36:42 70° ENE 23:41:30 10° N
Cosmos 1455 4.0 23:34:25 10° NNE 23:36:20 23° NE 23:36:20 23° NE
USA 32 3.9 23:33:13 10° N 23:38:30 87° W 23:38:57 76° S
FALCON 9 R/B 3.6 23:13:53 10° W 23:38:35 86° S 23:42:43 28° E
Cosmos 2297 Rocket 3.6 23:41:00 25° ENE 23:41:00 25° ENE 23:44:10 10° NE
SeaSat 1 3.7 23:41:22 28° ENE 23:41:50 28° ENE 23:46:00 10° N
Terra 1.9 23:47:00 69° W 23:47:00 69° W 23:51:41 10° NNW
Cosmos 1703 4.3 23:51:29 44° NNW 23:51:29 44° NNW 23:54:26 10° N
Cosmos 2237 4.1 23:45:35 10° NNW 23:51:19 73° WSW 23:51:43 70° SW
Cosmos 2219 Rocket 2.5 23:48:45 10° NNW 23:54:14 53° ENE 23:54:24 53° ENE
